Regional Weather Roundup
Issued by NWS

Home | Current Version | Previous Version | Text Only | Print | Product List | Glossary On
Versions: 1 2 3 4 5 6 7 8 9 10 11 12 13 14 15 16 17 18 19 20 21 22 23 24 25 26 27 28 29 30 31 32 33 34 35 36 37 38 39 40 41 42 43 44 45 46 47 48 49 50
000
ASUS46 KPQR 310810
RWROR

OREGON REGIONAL WEATHER ROUNDUP
NATIONAL WEATHER SERVICE PORTLAND OR
100 AM PDT TUE MAY 31 2016

NOTE: "FAIR" INDICATES FEW OR NO CLOUDS BELOW 12,000 FEET WITH
NO SIGNIFICANT WEATHER AND/OR OBSTRUCTIONS TO VISIBILITY.

ORZ001>013-310900-
NORTHWEST OREGON


CITY           SKY/WX    TMP DP  RH WIND       PRES   REMARKS
ASTORIA        PTCLDY    50  47  89 SE3       30.13S
NEWPORT        PTCLDY    48  46  93 E3        30.11F
PORTLAND       PTCLDY    61  43  51 CALM      30.10F
VANCOUVER WA   PTCLDY    61  41  47 CALM      30.10S
SCAPPOOSE      PTCLDY    62  39  42 N5        30.10S
HILLSBORO      PTCLDY    55  41  59 NW6       30.10S
AURORA         PTCLDY    58  41  53 NE5       30.10F
MCMINNVILLE    PTCLDY    54  40  59 N3        30.10F
SALEM          PTCLDY    61  42  49 NW3       30.08F
CORVALLIS        N/A     54  45  71 NW6       30.10S
EUGENE         CLEAR     52  44  74 CALM      30.08F
$$

ORZ021-028-310900-
SOUTHWEST OREGON


CITY           SKY/WX    TMP DP  RH WIND       PRES   REMARKS
NORTH BEND     CLEAR     52  52 100 CALM      30.08F
BROOKINGS      CLEAR     52  49  89 CALM      29.99F
ROSEBURG       CLEAR     57  43  59 CALM      30.07S
SEXTON SUMMIT  CLEAR     54  38  54 N12       30.12F
MEDFORD        CLEAR     61  46  57 CALM      30.04S
$$

ORZ014>016-041-310900-
COLUMBIA GORGE


CITY           SKY/WX    TMP DP  RH WIND       PRES   REMARKS
TROUTDALE      PTCLDY    56  49  77 SE3       30.10S
THE DALLES     PTCLDY    55  38  52 CALM      30.12S
$$

ORZ029>031-041-044-049-050-061>064-502-503-505>511-310900-
EASTERN OREGON


CITY           SKY/WX    TMP DP  RH WIND       PRES   REMARKS
REDMOND        PTCLDY    50  34  54 CALM      30.17S
BEND           PTCLDY    54  34  47 W7        30.18S
PRINEVILLE     PTCLDY    45  36  70 SW3       30.17S
KLAMATH FALLS  CLEAR     59  41  51 N10       30.14R
LAKEVIEW       CLEAR     54  30  40 N13       30.19S
HERMISTON      CLEAR     51  40  65 SE3       30.12S
PENDLETON      CLEAR     52  36  54 SE9       30.14S
JOHN DAY         N/A    N/A N/A N/A MISG        N/A
MEACHAM        CLEAR     36  32  85 CALM      30.20S
LA GRANDE      CLEAR     46  27  46 E5        30.16S
BAKER CITY     CLEAR     45  31  58 VRB6      30.16F
BURNS          CLEAR     46  29  51 W6        30.17S
ROME             N/A     46  27  47 E5        30.13S
ONTARIO        CLEAR     58  33  39 NW9       30.11R
$$



USA.gov is the U.S. government's official web portal to all federal, state and local government web resources and services.